DateTimeUTC,F1_A11,F1_S11,BsB_S11,BsG_S11,BsR_S11,BbsB_S11,BbsG_S11,BbsR_S11,BaB_A11,BaG_A11,BaR_A11,Tu_S11,T_S11,Uu_S11,U_S11,P_S11,T1_A11
2021-06-12T13:00:00Z,00000200,20000000,,,,,,,-000.01,0000.12,0000.20,18.9,25.2,01.5,01.0,0666.7,31.1
2021-06-12T13:01:00Z,00000200,20000000,,,,,,,0000.44,0000.15,0000.33,18.9,25.2,01.5,01.0,0666.7,31.1
2021-06-12T13:02:00Z,00000200,20000000,,,,,,,0000.16,0000.33,0000.32,18.9,25.2,01.5,01.0,0666.7,31.1
2021-06-12T13:03:00Z,00000200,60000000,,,,,,,0000.79,0000.61,0000.43,18.9,25.2,01.5,01.0,0666.7,31.1
2021-06-12T13:04:00Z,00000200,41000000,0000.75,0000.47,0000.57,0000.53,0000.02,0000.08,0001.05,0001.02,0000.86,19.1,25.1,01.5,01.1,0667.6,31.1
2021-06-12T13:05:00Z,00000200,01000000,0002.05,0001.70,0001.02,0000.22,0000.48,0000.29,0018.28,0017.06,0013.41,19.1,25.1,01.5,01.0,0667.8,31.1
2021-06-12T13:06:00Z,00000200,01000000,0000.88,0001.61,0001.04,0000.47,0000.42,-000.13,0020.76,0018.87,0015.16,19.1,25.1,01.5,01.1,0667.8,31.1
2021-06-12T13:07:00Z,00000200,01000000,0000.81,0001.12,0000.56,0000.34,0000.36,0000.27,0004.08,0003.73,0002.93,19.2,25.1,01.7,01.2,0667.8,31.1
2021-06-12T13:08:00Z,00000200,01000000,0001.84,0001.20,0001.28,0000.54,0000.45,0000.49,0022.36,0020.96,0016.63,19.2,25.1,01.7,01.2,0667.8,31.1
2021-06-12T13:09:00Z,00000200,01000000,0003.11,0001.56,0001.12,0000.34,0000.37,0000.70,0033.26,0030.29,0023.84,19.2,25.1,01.8,01.3,0667.8,31.1
2021-06-12T13:10:00Z,00000200,01000000,0001.18,0000.97,0000.78,0000.10,0000.39,0000.17,0007.15,0006.42,0005.81,19.2,25.1,01.6,01.1,0667.8,31.1
2021-06-12T13:11:00Z,00000200,01000000,0003.06,0002.62,0001.58,0001.13,0000.72,0000.48,0042.07,0038.87,0030.84,19.2,25.1,01.7,01.2,0667.8,31.1
2021-06-12T13:12:00Z,00000200,01000000,0002.05,0000.85,0000.69,0000.38,0000.20,0000.33,0010.91,0010.28,0007.92,19.2,25.1,01.7,01.2,0667.8,31.1
2021-06-12T13:13:00Z,00000200,01000000,0001.21,0000.65,0000.23,0000.28,0000.22,-000.08,0002.77,0002.55,0002.28,19.2,25.1,01.7,01.2,0667.8,31.1
2021-06-12T13:14:00Z,00000200,00000000,0002.49,0002.11,0001.42,0000.99,0000.41,0000.35,0037.49,0034.65,0027.12,19.2,25.1,01.8,01.2,0667.8,31.0
2021-06-12T13:15:00Z,00000200,00000000,0000.89,0000.99,0000.52,-000.09,0000.00,0000.02,0017.39,0016.13,0012.65,19.2,25.1,01.9,01.3,0667.8,31.1
2021-06-12T13:16:00Z,00000200,01000000,0000.74,0000.88,0000.71,-000.07,0000.27,-000.03,0006.63,0005.55,0004.40,19.2,25.1,01.8,01.3,0667.8,31.1
2021-06-12T13:17:00Z,00000200,01000000,0001.43,0001.03,0000.82,-000.21,0000.24,0000.20,0010.40,0009.93,0008.17,19.2,25.1,01.8,01.3,0667.8,31.0
2021-06-12T13:18:00Z,00000200,01000000,0001.25,0000.92,0000.63,0000.16,0000.39,0000.27,0009.85,0009.25,0007.25,19.2,25.1,01.8,01.2,0667.7,31.1
2021-06-12T13:19:00Z,00000200,01000000,0002.18,0001.17,0001.00,0000.49,0000.25,0000.29,0020.85,0018.96,0015.30,19.2,25.1,01.9,01.3,0667.8,31.0
2021-06-12T13:20:00Z,00000200,01000000,0006.82,0004.57,0002.85,0002.01,0001.53,0001.28,0115.16,0104.41,0081.68,19.2,25.1,01.8,01.2,0667.8,31.0
2021-06-12T13:21:00Z,00000200,01000000,0007.02,0004.95,0002.96,0001.53,0001.34,0000.88,0138.82,0128.15,0101.85,19.2,25.1,01.8,01.3,0667.8,31.1
2021-06-12T13:22:00Z,00000200,01000000,0005.18,0003.49,0002.34,0000.78,0000.82,0000.52,0083.02,0076.78,0061.41,19.2,25.1,01.9,01.3,0667.8,31.1
2021-06-12T13:23:00Z,00000200,00000000,0002.15,0001.51,0000.96,0000.46,0000.35,0000.29,0033.13,0031.38,0024.61,19.2,25.1,01.8,01.3,0667.8,31.1
2021-06-12T13:24:00Z,00000200,01000000,0000.57,0000.55,0000.45,0000.22,0000.29,0000.19,0006.09,0004.89,0004.34,19.2,25.1,01.8,01.3,0667.8,31.1
2021-06-12T13:25:00Z,00000200,00000000,0000.88,0000.43,0000.09,-000.22,0000.31,0000.06,0001.53,0002.05,0001.21,19.2,25.1,01.8,01.2,0667.8,31.1
2021-06-12T13:26:00Z,00000200,01000000,0000.41,0000.35,0000.57,0000.06,0000.07,0000.11,0001.53,0001.23,0000.97,19.2,25.1,01.7,01.2,0667.8,31.1
2021-06-12T13:27:00Z,00000200,01000000,0000.13,0000.68,0000.22,0000.35,-000.01,-000.01,0000.77,0000.48,0000.68,19.2,25.1,01.8,01.2,0667.7,31.0
2021-06-12T13:28:00Z,00000200,01000000,0000.70,0000.72,0000.02,0000.42,-000.07,0000.04,0001.03,0001.01,0000.75,19.2,25.1,01.8,01.3,0667.7,31.1
2021-06-12T13:29:00Z,00000200,01000000,0000.62,0000.28,0000.39,0000.29,0000.13,0000.07,0001.01,0000.84,0000.60,19.2,25.1,01.7,01.2,0667.8,31.0
2021-06-12T13:30:00Z,00000200,01000000,0001.03,0000.42,0000.38,0000.15,0000.27,-000.02,0001.18,0001.23,0001.09,19.2,25.1,01.8,01.3,0667.8,31.1
2021-06-12T13:31:00Z,00000200,01000000,0001.88,0001.90,0001.05,0000.25,0000.44,-000.04,0029.24,0026.90,0021.67,19.2,25.1,01.8,01.3,0667.8,31.1
2021-06-12T13:32:00Z,00000200,01000000,0000.79,0000.38,0000.50,0000.41,0000.17,0000.07,0001.81,0001.83,0000.94,19.2,25.1,01.9,01.3,0667.8,31.0
2021-06-12T13:33:00Z,00000200,01000000,0001.11,0000.49,0000.16,-000.15,0000.20,0000.18,0001.23,0001.05,0001.11,19.2,25.1,01.8,01.3,0667.8,31.1
2021-06-12T13:34:00Z,00000200,00000000,0000.13,0000.73,0000.30,0000.54,0000.35,-000.04,0000.53,0000.60,0000.32,19.2,25.1,01.9,01.3,0667.8,31.0
2021-06-12T13:35:00Z,00000200,01000000,0000.30,0000.34,0000.06,0000.52,0000.24,0000.03,0000.52,0000.30,0000.55,19.2,25.1,01.7,01.2,0667.8,31.0
2021-06-12T13:36:00Z,00000200,01000000,0000.95,0000.37,0000.32,-000.04,-000.01,-000.08,0000.49,0000.58,0000.30,19.2,25.1,01.7,01.2,0667.8,31.0
2021-06-12T13:37:00Z,00000200,01000000,0000.74,0000.38,0000.42,0000.22,-000.05,0000.06,0000.67,0000.30,0000.83,19.2,25.1,01.7,01.2,0667.8,31.1
2021-06-12T13:38:00Z,00000200,01000000,0001.13,0000.60,0000.40,0000.10,-000.05,0000.04,0000.76,0001.11,-000.14,19.2,25.1,01.8,01.2,0667.8,31.0
2021-06-12T13:39:00Z,00000200,01000000,0000.69,0000.25,0000.45,-000.41,0000.20,0000.26,0000.32,0000.29,0000.83,19.2,25.1,01.7,01.2,0667.8,31.0
2021-06-12T13:40:00Z,00000200,01000000,0000.77,0000.22,0000.43,0000.24,0000.17,0000.19,0000.64,0000.61,0000.14,19.2,25.1,01.7,01.2,0667.8,31.1
2021-06-12T13:41:00Z,00000200,01000000,0001.02,0000.29,0000.22,0000.30,0000.26,0000.02,0000.77,0000.83,0000.67,19.2,25.1,01.8,01.2,0667.8,31.0
2021-06-12T13:42:00Z,00000200,01000000,0000.48,0000.61,0000.34,-000.24,0000.21,0000.14,0000.75,0000.45,0000.60,19.2,25.1,01.8,01.3,0667.8,31.0
2021-06-12T13:43:00Z,00000200,01000000,0000.73,0000.51,0000.34,0000.21,0000.07,-000.11,0000.41,0000.85,0000.58,19.2,25.1,01.9,01.4,0667.8,31.0
2021-06-12T13:44:00Z,00000200,01000000,0001.31,0000.39,0000.63,0000.34,0000.13,0000.11,0000.76,0000.20,0000.23,19.2,25.1,01.8,01.3,0667.8,31.0
2021-06-12T13:45:00Z,00000200,00000000,0001.04,0000.60,0000.58,0000.28,0000.13,0000.15,0000.74,0000.51,0000.58,19.2,25.1,01.8,01.3,0667.8,31.0
2021-06-12T13:46:00Z,00000200,01000000,0000.69,0000.46,0000.39,-000.18,-000.13,0000.02,0000.20,0000.24,0000.21,19.2,25.1,01.8,01.2,0667.8,31.0
2021-06-12T13:47:00Z,00000200,01000000,0000.54,0000.34,0000.24,0000.15,0000.13,0000.14,0000.84,0001.21,0000.70,19.2,25.1,01.8,01.2,0667.9,31.0
2021-06-12T13:48:00Z,00000200,00000000,-000.08,0000.70,0000.63,0000.06,0000.06,0000.22,0000.23,-000.08,-000.18,19.2,25.1,01.9,01.3,0667.8,31.0
2021-06-12T13:49:00Z,00000200,01000000,0000.51,0000.45,0000.37,0000.26,0000.29,0000.18,0000.60,0000.55,0000.81,19.2,25.1,01.8,01.3,0667.8,31.0
2021-06-12T13:50:00Z,00000200,01000000,0000.39,0000.35,0000.24,-000.11,0000.16,0000.16,0000.56,0000.58,0000.19,19.2,25.1,01.8,01.2,0667.9,31.0
2021-06-12T13:51:00Z,00000200,00000000,0000.74,0000.39,0000.45,-000.19,0000.06,0000.11,0000.64,0000.10,0000.30,19.2,25.1,01.8,01.3,0667.8,31.0
2021-06-12T13:52:00Z,00000200,01000000,0000.28,0000.62,0000.40,-000.07,0000.02,0000.20,0000.56,0001.01,0000.80,19.2,25.1,01.8,01.2,0667.9,31.0
2021-06-12T13:53:00Z,00000200,00000000,0000.64,0000.46,0000.72,0000.54,0000.00,-000.07,0000.51,0000.33,0000.38,19.2,25.1,01.8,01.3,0667.9,31.0
2021-06-12T13:54:00Z,00000200,01000000,0000.81,0000.51,0000.51,0000.37,0000.08,0000.05,0000.38,0000.37,0000.33,19.1,25.1,01.8,01.2,0667.8,31.0
2021-06-12T13:55:00Z,00000200,01000000,0001.00,0000.47,0000.91,-000.51,0000.01,0000.16,0000.69,0000.69,0000.52,19.1,25.1,01.7,01.2,0667.9,31.0
2021-06-12T13:56:00Z,00000200,01000000,0000.96,0000.62,0000.47,-000.53,0000.14,-000.07,0000.51,0000.51,0000.14,19.1,25.1,01.7,01.2,0667.8,31.0
2021-06-12T13:57:00Z,00000200,40000000,,,,,,,0000.54,0000.62,0000.90,19.2,25.1,01.6,01.1,0667.8,31.0
2021-06-12T13:58:00Z,00000200,60000000,,,,,,,0000.18,0000.03,-000.25,19.0,25.2,01.6,01.1,0666.9,31.0
2021-06-12T13:59:00Z,00000200,20000000,,,,,,,0000.24,0000.31,-000.01,19.0,25.3,01.5,01.0,0666.9,31.0
